カタログに戻る

MARISAT 2

運用中通信MEO
NORAD 9478·PAYLOAD·🇺🇸 United States

打ち上げ Oct 14, 1976 から Cape Canaveral Space Force Station

Loading…

次のパス (今後24時間)

TLE

最新Source: Space-Track

元期: Sep 14, 2026, 11:50 UTC

1 09478U 76101A   26257.49314855 -.00000222  00000-0  00000-0 0  9991
2 09478   5.6664 310.5212 0103927 351.1064 175.3622  0.97591450124231

AllMySatでMARISAT 2をリアルタイム追跡

Download on the App Store